Location: Ottobeuren
(47.9410°N, 10.3007°E)
Time: 06:35:46
(UTC+02:00)

ISS - Visible Passes

Search period start: 23 October 2019 00:00
Search period end: 01 November 2019 23:00
Orbit: 411 x 421 km, 51.6° (Epoch: 23 October)

Date Brightness Start Highest point End Pass type
(mag) Time Alt. Az. Time Alt. Az. Time Alt. Az.
24 Oct -0.9 06:49:32 10° S 06:51:43 16° SE 06:53:55 10° E visible
25 Oct -0.5 06:02:57 10° SE 06:03:24 10° SE 06:03:51 10° SE visible
26 Oct -2.3 06:47:54 10° SSW 06:51:01 35° SE 06:54:08 10° ENE visible
27 Oct -1.6 05:00:54 16° S 05:02:34 23° SE 05:05:19 10° E visible
28 Oct -0.9 04:14:47 15° ESE 04:14:47 15° ESE 04:16:13 10° E visible
28 Oct -3.7 05:47:42 15° WSW 05:50:27 76° SSE 05:53:48 10° ENE visible
29 Oct -3.2 05:01:27 47° S 05:01:53 51° SSE 05:05:10 10° ENE visible
30 Oct -1.1 04:15:04 20° E 04:15:04 20° E 04:16:26 10° ENE visible
30 Oct -3.6 05:47:58 22° W 05:49:59 62° NNW 05:53:20 10° ENE visible
31 Oct -3.8 05:01:29 77° NNE 05:01:29 77° NNE 05:04:42 10° ENE visible
01 Nov -1.0 04:14:56 19° ENE 04:14:56 19° ENE 04:16:03 10° ENE visible
01 Nov -3.2 05:47:50 23° WNW 05:49:34 45° N 05:52:49 10° ENE visible
